Satellite: NOAA-18
Catalog number: 28654
Epoch time:      08051.77861433
Element set:    0326
Inclination:      098.8567 deg
RA of node:       354.2202 deg
Eccentricity:    0.0013514
Arg of perigee:   288.1303 deg
Mean anomaly:     071.8398 deg
Mean motion:   14.11136990 rev/day
Decay rate:      -1.52e-06 rev/day^2
Epoch rev:           14191
Checksum:              304

/EX
SB KEPS @ AMSAT  $ORB08052.M
Orbital Elements  08052.MISC

HR AMSAT ORBITAL ELEMENTS FOR MANNED AND MISCELLANEOUS SATELLITES
FROM WA5QGD FORT WORTH,TX February 21, 2008
Send Subscribe/unsubscribe to KEPS at 
http://www.amsat.org/mailman/listinfo/keps
BID: ORB08052.M
TO ALL RADIO AMATEURS BT

Satellite: HUBBLE
Catalog number: 20580
Epoch time:      08051.93657217
Element set:    0078
Inclination:      028.4684 deg
RA of node:       007.9414 deg
Eccentricity:    0.0003994
Arg of perigee:   215.8170 deg
Mean anomaly:     144.2149 deg
Mean motion:   15.00339276 rev/day
Decay rate:       3.45e-06 rev/day^2
Epoch rev:           77735
Checksum:              301

Satellite: UARS
Catalog number: 21701
Epoch time:      08052.91246653
Element set:     297
Inclination:      056.9775 deg
RA of node:       308.3570 deg
Eccentricity:    0.0081878
Arg of perigee:   318.5306 deg
Mean anomaly:     040.9556 deg
Mean motion:   15.50657589 rev/day
Decay rate:      4.387e-05 rev/day^2
Epoch rev:           90445
Checksum:              335

Satellite: PO-34
Catalog number: 25520
Epoch time:      08052.89623248
Element set:     936
Inclination:      028.4592 deg
RA of node:       237.3082 deg
Eccentricity:    0.0005652
Arg of perigee:   099.1972 deg
Mean anomaly:     260.9256 deg
Mean motion:   15.17136363 rev/day
Decay rate:       5.18e-06 rev/day^2
Epoch rev:           51548
Checksum:              319

Satellite: ISS
Catalog number: 25544
Epoch time:      08053.05680841
Element set:     967
Inclination:      051.6397 deg
RA of node:       255.0029 deg
Eccentricity:    0.0007854
Arg of perigee:   066.6260 deg
Mean anomaly:     072.0350 deg
Mean motion:   15.77394032 rev/day
Decay rate:     1.0540e-04 rev/day^2
Epoch rev:           53020
Checksum:              279

Satellite: OO-38
Catalog number: 26063
Epoch time:      08052.71024202
Element set:     141
Inclination:      100.2075 deg
RA of node:       106.2257 deg
Eccentricity:    0.0036966
Arg of perigee:   177.0920 deg
Mean anomaly:     183.0482 deg
Mean motion:   14.35827714 rev/day
Decay rate:       -2.9e-07 rev/day^2
Epoch rev:           42285
Checksum:              273

Satellite: UWE-1
Catalog number: 28892
Epoch time:      08052.68286486
Element set:     981
Inclination:      098.1104 deg
RA of node:       309.0269 deg
Eccentricity:    0.0018374
Arg of perigee:   055.6092 deg
Mean anomaly:     304.6832 deg
Mean motion:   14.59594604 rev/day
Decay rate:        9.0e-07 rev/day^2
Epoch rev:           12360
Checksum:              318

Satellite: CO-58
Catalog number: 28895
Epoch time:      08052.65406235
Element set:     953
Inclination:      098.1155 deg
RA of node:       309.3089 deg
Eccentricity:    0.0018970
Arg of perigee:   055.8021 deg
Mean anomaly:     304.4994 deg
Mean motion:   14.59636881 rev/day
Decay rate:       1.44e-06 rev/day^2
Epoch rev:           12348
Checksum:              336

Satellite: NCUBE2
Catalog number: 28897
Epoch time:      08051.67250170
Element set:    0485
Inclination:      098.1101 deg
RA of node:       308.2865 deg
Eccentricity:    0.0018170
Arg of perigee:   059.5259 deg
Mean anomaly:     300.7767 deg
Mean motion:   14.59804939 rev/day
Decay rate:       1.28e-06 rev/day^2
Epoch rev:           11562
Checksum:              316

Satellite: FCAL
Catalog number: 29667
Epoch time:      08052.86677242
Element set:     772
Inclination:      051.6296 deg
RA of node:       213.9097 deg
Eccentricity:    0.0008046
Arg of perigee:   250.9607 deg
Mean anomaly:     109.0532 deg
Mean motion:   16.02425972 rev/day
Decay rate:     5.2508e-04 rev/day^2
Epoch rev:            6782
Checksum:              318

Satellite: FALCON
Catalog number: 30776
Epoch time:      08051.66148863
Element set:    0270
Inclination:      035.4323 deg
RA of node:       146.2077 deg
Eccentricity:    0.0001068
Arg of perigee:   025.2684 deg
Mean anomaly:     334.8084 deg
Mean motion:   15.02884480 rev/day
Decay rate:       3.68e-06 rev/day^2
Epoch rev:           05245
Checksum:              289

Satellite: MAST
Catalog number: 31126
Epoch time:      08051.72411634
Element set:     260
Inclination:      098.0529 deg
RA of node:       120.7846 deg
Eccentricity:    0.0094391
Arg of perigee:   336.6094 deg
Mean anomaly:     023.0800 deg
Mean motion:   14.53399784 rev/day
Decay rate:       -5.2e-07 rev/day^2
Epoch rev:            4495
Checksum:              287

